| time (UTC) | temp F | wind direction | speed knots | gust knots | rain 1hr in | rain 24hr in | rain mn in | humidity % | barometer mb |
| 20260507185656 | 59 | 330 | 6.1 | 7.8 | 0.00 | 0.00 | 0.00 | 100 | |
| 20260507185156 | 59 | 327 | 6.1 | 9.6 | 0.00 | 0.00 | 0.00 | 100 | |
| 20260507184655 | 58 | 281 | 3.5 | 7.8 | 0.00 | 0.00 | 0.00 | 100 | |
| 20260507184155 | 58 | 284 | 1.7 | 7.8 | 0.00 | 0.00 | 0.00 | 100 | |
| 20260507183655 | 59 | 303 | 4.3 | 7.0 | 0.00 | 0.00 | 0.00 | 100 | |
| 20260507183155 | 57 | 307 | 3.5 | 7.8 | 0.00 | 0.00 | 0.00 | 100 | |
| 20260507182654 | 58 | 302 | 6.1 | 6.1 | 0.00 | 0.00 | 0.00 | 100 | |
| 20260507182154 | 57 | 358 | 1.7 | 6.1 | 0.00 | 0.00 | 0.00 | 100 | |
| 20260507181654 | 58 | 312 | 5.2 | 5.2 | 0.00 | 0.00 | 0.00 | 100 | |
| 20260507181153 | 58 | 348 | 2.6 | 5.2 | 0.00 | 0.00 | 0.00 | 100 | |
| 20260507180653 | 58 | 326 | 3.5 | 6.1 | 0.00 | 0.00 | 0.00 | 100 | |
| 20260507180153 | 58 | 324 | 2.6 | 7.0 | 0.00 | 0.00 | 0.00 | 100 | |
| 20260507175653 | 58 | 337 | 3.5 | 5.2 | 0.00 | 0.00 | 0.00 | 100 | |
| 20260507175152 | 58 | 14 | 1.7 | 6.1 | 0.00 | 0.00 | 0.00 | 100 | |
| 20260507174652 | 55 | 355 | 1.7 | 7.0 | 0.00 | 0.00 | 0.00 | 100 | |
| 20260507174152 | 55 | 357 | 3.5 | 8.7 | 0.00 | 0.00 | 0.00 | 100 | |
| 20260507173651 | 56 | 9 | 7.0 | 10.4 | 0.00 | 0.00 | 0.00 | 100 | |
| 20260507173151 | 58 | 358 | 5.2 | 5.2 | 0.00 | 0.00 | 0.00 | 100 | |
| 20260507172651 | 58 | 358 | 4.3 | 7.0 | 0.00 | 0.00 | 0.00 | 100 | |
| 20260507172150 | 58 | 322 | 5.2 | 11.3 | 0.00 | 0.00 | 0.00 | 100 | |
| 20260507171650 | 59 | 309 | 6.1 | 7.8 | 0.00 | 0.00 | 0.00 | 100 | |
| 20260507171150 | 58 | 316 | 5.2 | 9.6 | 0.00 | 0.00 | 0.00 | 100 | |
| 20260507170650 | 59 | 345 | 3.5 | 7.8 | 0.00 | 0.00 | 0.00 | 100 | |
| 20260507170149 | 61 | 285 | 4.3 | 7.8 | 0.00 | 0.00 | 0.00 | 100 | |
| 20260507165649 | 61 | 307 | 6.1 | 6.1 | 0.00 | 0.00 | 0.00 | 100 | |
| 20260507165149 | 62 | 302 | 5.2 | 10.4 | 0.00 | 0.00 | 0.00 | 100 | |
| 20260507164648 | 62 | 334 | 3.5 | 7.8 | 0.00 | 0.00 | 0.00 | 100 | |
| 20260507164148 | 63 | 319 | 2.6 | 7.0 | 0.00 | 0.00 | 0.00 | 100 | |
| 20260507163648 | 62 | 338 | 4.3 | 6.1 | 0.00 | 0.00 | 0.00 | 100 | |
| 20260507163148 | 63 | 307 | 3.5 | 7.0 | 0.00 | 0.00 | 0.00 | 100 | |
| 20260507162647 | 62 | 306 | 6.1 | 7.8 | 0.00 | 0.00 | 0.00 | 100 | |
| 20260507162147 | 62 | 313 | 2.6 | 5.2 | 0.00 | 0.00 | 0.00 | 100 | |
| 20260507161647 | 61 | 354 | 1.7 | 6.1 | 0.00 | 0.00 | 0.00 | 100 | |
| 20260507161146 | 60 | 333 | 3.5 | 5.2 | 0.00 | 0.00 | 0.00 | 100 | |
| 20260507160646 | 60 | 22 | 1.7 | 7.8 | 0.00 | 0.00 | 0.00 | 100 | |
| 20260507160146 | 59 | 344 | 5.2 | 8.7 | 0.00 | 0.00 | 0.00 | 100 | |
| 20260507155645 | 60 | 19 | 3.5 | 7.0 | 0.00 | 0.00 | 0.00 | 100 | |
| 20260507155145 | 59 | 9 | 2.6 | 8.7 | 0.00 | 0.00 | 0.00 | 100 | |
| 20260507154645 | 59 | 322 | 6.1 | 7.8 | 0.00 | 0.00 | 0.00 | 100 | |
| 20260507154145 | 63 | 337 | 4.3 | 7.8 | 0.00 | 0.00 | 0.00 | 100 | |
| 20260507153644 | 63 | 338 | 4.3 | 7.8 | 0.00 | 0.00 | 0.00 | 100 | |
| 20260507153144 | 63 | 5 | 6.1 | 7.0 | 0.00 | 0.00 | 0.00 | 100 | |
| 20260507152644 | 66 | 341 | 1.7 | 6.1 | 0.00 | 0.00 | 0.00 | 100 | |
| 20260507152143 | 69 | 358 | 2.6 | 6.1 | 0.00 | 0.00 | 0.00 | 100 | |
| 20260507151643 | 71 | 327 | 0.9 | 3.5 | 0.00 | 0.00 | 0.00 | 100 | |
| 20260507151143 | 71 | 317 | 1.7 | 2.6 | 0.00 | 0.00 | 0.00 | 100 | |
| 20260507150643 | 71 | 18 | 0.0 | 0.0 | 0.00 | 0.00 | 0.00 | 100 | |
| 20260507150142 | 71 | 18 | 0.0 | 1.7 | 0.00 | 0.00 | 0.00 | 100 | |
| 20260507145642 | 72 | 23 | 0.0 | 0.0 | 0.00 | 0.00 | 0.00 | 100 | |
| 20260507145142 | 72 | 23 | 0.0 | 0.0 | 0.00 | 0.00 | 0.00 | 100 | |
| 20260507144641 | 72 | 23 | 0.0 | 1.7 | 0.00 | 0.00 | 0.00 | 100 | |
| 20260507144141 | 72 | 25 | 1.7 | 2.6 | 0.00 | 0.00 | 0.00 | 100 | |
| 20260507143641 | 72 | 8 | 1.7 | 2.6 | 0.00 | 0.00 | 0.00 | 100 | |
| 20260507143141 | 73 | 5 | 0.9 | 2.6 | 0.00 | 0.00 | 0.00 | 100 | |
| 20260507142640 | 73 | 315 | 0.0 | 4.3 | 0.00 | 0.00 | 0.00 | 100 | |
| 20260507142140 | 73 | 243 | 0.9 | 4.3 | 0.00 | 0.00 | 0.00 | 100 | |
| 20260507141640 | 73 | 291 | 0.9 | 3.5 | 0.00 | 0.00 | 0.00 | 100 | |
| 20260507141139 | 74 | 293 | 2.6 | 3.5 | 0.00 | 0.00 | 0.00 | 100 | |
| 20260507140639 | 74 | 334 | 0.0 | 2.6 | 0.00 | 0.00 | 0.00 | 100 | |
| 20260507140139 | 75 | 338 | 2.6 | 3.5 | 0.00 | 0.00 | 0.00 | 100 | |
| 20260507135639 | 74 | 5 | 1.7 | 3.5 | 0.00 | 0.00 | 0.00 | 100 | |
| 20260507135138 | 78 | 358 | 1.7 | 4.3 | 0.00 | 0.00 | 0.00 | 100 | |
| 20260507134638 | 75 | 337 | 1.7 | 5.2 | 0.00 | 0.00 | 0.00 | 100 | |
| 20260507134138 | 74 | 28 | 1.7 | 4.3 | 0.00 | 0.00 | 0.00 | 100 | |
| 20260507133637 | 75 | 285 | 4.3 | 4.3 | 0.00 | 0.00 | 0.00 | 100 | |
| 20260507133137 | 74 | 333 | 2.6 | 5.2 | 0.00 | 0.00 | 0.00 | 100 | |
| 20260507132637 | 72 | 305 | 4.3 | 6.1 | 0.00 | 0.00 | 0.00 | 100 | |
| 20260507132136 | 70 | 305 | 4.3 | 5.2 | 0.00 | 0.00 | 0.00 | 100 | |
| 20260507131636 | 70 | 322 | 3.5 | 6.1 | 0.00 | 0.00 | 0.00 | 100 | |
| 20260507131136 | 71 | 300 | 4.3 | 8.7 | 0.00 | 0.00 | 0.00 | 100 | |
| 20260507130636 | 71 | 313 | 5.2 | 7.8 | 0.00 | 0.00 | 0.00 | 100 | |
| 20260507130135 | 72 | 323 | 3.5 | 8.7 | 0.00 | 0.00 | 0.00 | 100 | |
| 20260507125635 | 72 | 345 | 3.5 | 7.8 | 0.00 | 0.00 | 0.00 | 100 | |
| 20260507125135 | 73 | 320 | 6.1 | 7.8 | 0.00 | 0.00 | 0.00 | 100 | |
| 20260507124634 | 73 | 352 | 2.6 | 7.8 | 0.00 | 0.00 | 0.00 | 100 | |
| 20260507124134 | 73 | 333 | 2.6 | 6.1 | 0.00 | 0.00 | 0.00 | 100 | |
| 20260507123634 | 74 | 4 | 3.5 | 5.2 | 0.00 | 0.00 | 0.00 | 100 | |
| 20260507123134 | 76 | 343 | 3.5 | 4.3 | 0.00 | 0.00 | 0.00 | 100 | |
| 20260507122633 | 78 | 326 | 2.6 | 5.2 | 0.00 | 0.00 | 0.00 | 100 | |
| 20260507122133 | 79 | 343 | 0.9 | 5.2 | 0.00 | 0.00 | 0.00 | 100 | |
| 20260507121633 | 75 | 47 | 0.0 | 3.5 | 0.00 | 0.00 | 0.00 | 100 | |
| 20260507121132 | 76 | 22 | 2.6 | 4.3 | 0.00 | 0.00 | 0.00 | 100 | |
| 20260507120632 | 77 | 16 | 0.0 | 3.5 | 0.00 | 0.00 | 0.00 | 100 | |
| 20260507120132 | 75 | 21 | 1.7 | 4.3 | 0.00 | 0.00 | 0.00 | 100 | |
| 20260507115632 | 76 | 33 | 0.9 | 5.2 | 0.00 | 0.00 | 0.00 | 100 | |
| 20260507115131 | 76 | 14 | 0.0 | 1.7 | 0.00 | 0.00 | 0.00 | 100 | |
| 20260507114631 | 74 | 40 | 0.9 | 3.5 | 0.00 | 0.00 | 0.00 | 100 | |
| 20260507114131 | 77 | 192 | 0.0 | 5.2 | 0.00 | 0.00 | 0.00 | 100 | |
| 20260507113630 | 75 | 25 | 0.0 | 7.0 | 0.00 | 0.00 | 0.00 | 100 | |
| 20260507113130 | 75 | 33 | 1.7 | 5.2 | 0.00 | 0.00 | 0.00 | 100 | |
| 20260507112630 | 76 | 23 | 4.3 | 4.3 | 0.00 | 0.00 | 0.00 | 100 | |
| 20260507112129 | 73 | 77 | 0.0 | 4.3 | 0.00 | 0.00 | 0.00 | 100 | |
| 20260507111629 | 70 | 116 | 0.0 | 4.3 | 0.00 | 0.00 | 0.00 | 100 | |
| 20260507111129 | 76 | 7 | 0.0 | 0.0 | 0.00 | 0.00 | 0.00 | 100 | |
| 20260507110629 | 74 | 43 | 0.0 | 0.0 | 0.00 | 0.00 | 0.00 | 100 | |
| 20260507110128 | 75 | 43 | 0.0 | 4.3 | 0.00 | 0.00 | 0.00 | 100 | |
| 20260507105628 | 75 | 53 | 2.6 | 5.2 | 0.00 | 0.00 | 0.00 | 100 | |
| 20260507105128 | 72 | 174 | 0.0 | 5.2 | 0.00 | 0.00 | 0.00 | 100 | |
| 20260507104627 | 70 | 122 | 4.3 | 4.3 | 0.00 | 0.00 | 0.00 | 100 | |
| 20260507104127 | 75 | 352 | 0.0 | 3.5 | 0.00 | 0.00 | 0.00 | 100 | |
| 20260507103627 | 76 | 15 | 1.7 | 4.3 | 0.00 | 0.00 | 0.00 | 100 | |
| 20260507103127 | 74 | 9 | 0.9 | 4.3 | 0.00 | 0.00 | 0.00 | 100 | |
| 20260507102626 | 72 | 36 | 1.7 | 4.3 | 0.00 | 0.00 | 0.00 | 100 | |
| 20260507102126 | 72 | 334 | 0.0 | 4.3 | 0.00 | 0.00 | 0.00 | 100 | |
| 20260507101626 | 71 | 7 | 2.6 | 5.2 | 0.00 | 0.00 | 0.00 | 100 | |
| 20260507101125 | 71 | 279 | 0.0 | 5.2 | 0.00 | 0.00 | 0.00 | 100 | |
| 20260507100625 | 72 | 23 | 0.0 | 7.8 | 0.00 | 0.00 | 0.00 | 100 | |
| 20260507100125 | 71 | 32 | 5.2 | 7.8 | 0.00 | 0.00 | 0.00 | 100 | |
| 20260507095625 | 73 | 36 | 0.0 | 0.0 | 0.00 | 0.00 | 0.00 | 100 | |
| 20260507095124 | 72 | 36 | 0.0 | 4.3 | 0.00 | 0.00 | 0.00 | 100 | |
| 20260507094624 | 71 | 29 | 3.5 | 3.5 | 0.00 | 0.00 | 0.00 | 100 | |
| 20260507094124 | 71 | 119 | 0.0 | 5.2 | 0.00 | 0.00 | 0.00 | 100 | |
| 20260507093623 | 71 | 295 | 0.0 | 5.2 | 0.00 | 0.00 | 0.00 | 100 | |
| 20260507093123 | 73 | 345 | 0.0 | 4.3 | 0.00 | 0.00 | 0.00 | 100 | |
| 20260507092623 | 75 | 1 | 0.0 | 1.7 | 0.00 | 0.00 | 0.00 | 100 | |
| 20260507092122 | 74 | 11 | 0.0 | 4.3 | 0.00 | 0.00 | 0.00 | 100 | |
| 20260507091622 | 72 | 351 | 2.6 | 5.2 | 0.00 | 0.00 | 0.00 | 100 | |
| 20260507091122 | 73 | 307 | 1.7 | 1.7 | 0.00 | 0.00 | 0.00 | 100 | |
| 20260507090622 | 74 | 23 | 1.7 | 1.7 | 0.00 | 0.00 | 0.00 | 100 | |
| 20260507090121 | 71 | 78 | 0.0 | 0.9 | 0.00 | 0.00 | 0.00 | 100 | |
| 20260507085621 | 72 | 32 | 0.0 | 0.0 | 0.00 | 0.00 | 0.00 | 100 | |
| 20260507085121 | 70 | 32 | 0.0 | 1.7 | 0.00 | 0.00 | 0.00 | 100 | |
| 20260507084620 | 70 | 74 | 1.7 | 1.7 | 0.00 | 0.00 | 0.00 | 100 | |
| 20260507084120 | 68 | 115 | 0.0 | 1.7 | 0.00 | 0.00 | 0.00 | 100 | |
| 20260507083620 | 69 | 102 | 0.0 | 0.0 | 0.00 | 0.00 | 0.00 | 100 | |
| 20260507083120 | 70 | 102 | 0.0 | 0.0 | 0.00 | 0.00 | 0.00 | 100 | |
| 20260507082619 | 69 | 102 | 0.0 | 0.0 | 0.00 | 0.00 | 0.00 | 100 | |
| 20260507082119 | 71 | 326 | 0.0 | 0.9 | 0.00 | 0.00 | 0.00 | 100 | |
| 20260507081619 | 70 | 11 | 0.0 | 2.6 | 0.00 | 0.00 | 0.00 | 100 | |
| 20260507081118 | 70 | 90 | 0.0 | 0.9 | 0.00 | 0.00 | 0.00 | 100 | |
| 20260507080618 | 70 | 11 | 0.0 | 0.0 | 0.00 | 0.00 | 0.00 | 100 | |
| 20260507080118 | 70 | 11 | 0.0 | 0.0 | 0.00 | 0.00 | 0.00 | 100 | |
| 20260507075617 | 70 | 11 | 0.0 | 0.0 | 0.00 | 0.00 | 0.00 | 100 | |
| 20260507075117 | 69 | 11 | 0.0 | 2.6 | 0.00 | 0.00 | 0.00 | 100 | |
| 20260507074617 | 69 | 32 | 0.0 | 2.6 | 0.00 | 0.00 | 0.00 | 100 | |
| 20260507074117 | 69 | 40 | 0.9 | 2.6 | 0.00 | 0.00 | 0.00 | 100 | |
| 20260507073616 | 69 | 9 | 0.0 | 3.5 | 0.00 | 0.00 | 0.00 | 100 | |
| 20260507073116 | 69 | 15 | 0.9 | 5.2 | 0.00 | 0.00 | 0.00 | 100 | |
| 20260507072616 | 70 | 21 | 0.0 | 2.6 | 0.00 | 0.00 | 0.00 | 100 | |
| 20260507072115 | 70 | 29 | 0.0 | 2.6 | 0.00 | 0.00 | 0.00 | 100 | |
| 20260507071615 | 71 | 14 | 0.0 | 0.9 | 0.00 | 0.00 | 0.00 | 100 | |
| 20260507071115 | 69 | 1 | 0.0 | 2.6 | 0.00 | 0.00 | 0.00 | 100 | |
| 20260507070615 | 69 | 18 | 1.7 | 2.6 | 0.00 | 0.00 | 0.00 | 100 | |
| 20260507070114 | 68 | 358 | 0.0 | 2.6 | 0.00 | 0.00 | 0.00 | 100 | |
| 20260507065614 | 68 | 25 | 0.0 | 2.6 | 0.00 | 0.00 | 0.00 | 100 | |
| 20260507065114 | 67 | 54 | 1.7 | 3.5 | 0.00 | 0.00 | 0.00 | 100 | |
| 20260507064613 | 68 | 5 | 1.7 | 3.5 | 0.00 | 0.00 | 0.00 | 100 | |
| 20260507064113 | 69 | 1 | 0.0 | 0.9 | 0.00 | 0.00 | 0.00 | 100 | |
| 20260507063613 | 65 | 16 | 0.0 | 4.3 | 0.00 | 0.00 | 0.00 | 100 | |
| 20260507063113 | 69 | 16 | 0.0 | 0.0 | 0.00 | 0.00 | 0.00 | 100 | |
| 20260507062612 | 67 | 16 | 0.0 | 0.9 | 0.00 | 0.00 | 0.00 | 100 | |
| 20260507062112 | 67 | 37 | 0.0 | 0.0 | 0.00 | 0.00 | 0.00 | 100 | |
| 20260507061612 | 69 | 28 | 0.0 | 0.0 | 0.00 | 0.00 | 0.00 | 100 | |
| 20260507061111 | 69 | 28 | 0.0 | 0.9 | 0.00 | 0.00 | 0.00 | 100 | |
| 20260507060611 | 68 | 59 | 0.0 | 0.0 | 0.00 | 0.00 | 0.00 | 100 | |
| 20260507060111 | 69 | 59 | 0.0 | 0.0 | 0.00 | 0.00 | 0.00 | 100 | |
| 20260507055610 | 68 | 59 | 0.0 | 0.0 | 0.00 | 0.00 | 0.00 | 100 | |
| 20260507055110 | 68 | 59 | 0.0 | 0.0 | 0.00 | 0.00 | 0.00 | 100 | |
| 20260507054610 | 68 | 59 | 0.0 | 0.0 | 0.00 | 0.00 | 0.00 | 100 | |
| 20260507054110 | 67 | 59 | 0.0 | 0.0 | 0.00 | 0.00 | 0.00 | 100 | |
| 20260507053609 | 68 | 59 | 0.0 | 0.0 | 0.00 | 0.00 | 0.00 | 100 | |
| 20260507053109 | 66 | 59 | 0.0 | 0.0 | 0.00 | 0.00 | 0.00 | 100 | |
| 20260507052609 | 67 | 59 | 0.0 | 1.7 | 0.00 | 0.00 | 0.00 | 100 | |
| 20260507052108 | 68 | 45 | 0.0 | 0.0 | 0.00 | 0.00 | 0.00 | 100 | |
| 20260507051608 | 67 | 45 | 0.0 | 0.0 | 0.00 | 0.00 | 0.00 | 100 | |
| 20260507051108 | 66 | 45 | 0.0 | 0.0 | 0.00 | 0.00 | 0.00 | 100 | |
| 20260507050608 | 66 | 45 | 0.0 | 0.0 | 0.00 | 0.00 | 0.00 | 100 | |
| 20260507050107 | 65 | 95 | 0.0 | 0.9 | 0.00 | 0.00 | 0.00 | 100 | |
| 20260507045607 | 65 | 32 | 0.0 | 0.0 | 0.00 | 0.00 | 0.00 | 100 | |
| 20260507045107 | 67 | 32 | 0.0 | 0.0 | 0.00 | 0.00 | 0.00 | 100 | |
| 20260507044606 | 66 | 32 | 0.0 | 0.0 | 0.00 | 0.00 | 0.00 | 100 | |
| 20260507044106 | 67 | 32 | 0.0 | 0.0 | 0.00 | 0.00 | 0.00 | 100 | |
| 20260507043606 | 65 | 32 | 0.0 | 1.7 | 0.00 | 0.00 | 0.00 | 100 | |
| 20260507043106 | 66 | 8 | 0.9 | 0.9 | 0.00 | 0.00 | 0.00 | 100 | |
| 20260507042605 | 66 | 45 | 0.0 | 0.0 | 0.00 | 0.00 | 0.00 | 100 | |
| 20260507042105 | 66 | 45 | 0.0 | 0.0 | 0.00 | 0.00 | 0.00 | 100 | |
| 20260507041605 | 65 | 45 | 0.0 | 0.0 | 0.00 | 0.00 | 0.00 | 100 | |
| 20260507041104 | 66 | 45 | 0.0 | 0.0 | 0.00 | 0.00 | 0.00 | 100 | |
| 20260507040604 | 66 | 45 | 0.0 | 0.0 | 0.00 | 0.00 | 0.00 | 100 | |
| 20260507040104 | 64 | 45 | 0.0 | 0.9 | 0.00 | 0.00 | 0.00 | 100 | |
| 20260507035603 | 63 | 80 | 0.0 | 0.0 | 0.00 | 0.00 | 0.00 | 100 | |
| 20260507035103 | 64 | 80 | 0.0 | 1.7 | 0.00 | 0.00 | 0.00 | 100 | |
| 20260507034603 | 61 | 146 | 0.9 | 4.3 | 0.00 | 0.00 | 0.00 | 100 | |
| 20260507034103 | 61 | 132 | 3.5 | 3.5 | 0.00 | 0.00 | 0.00 | 100 | |
| 20260507033602 | 63 | 153 | 0.0 | 0.0 | 0.00 | 0.00 | 0.00 | 100 | |
| 20260507033102 | 65 | 153 | 0.0 | 0.0 | 0.00 | 0.00 | 0.00 | 100 | |
| 20260507032602 | 61 | 153 | 0.0 | 3.5 | 0.00 | 0.00 | 0.00 | 100 | |
| 20260507032101 | 63 | 158 | 0.0 | 0.0 | 0.00 | 0.00 | 0.00 | 100 | |
| 20260507031601 | 64 | 158 | 0.0 | 2.6 | 0.00 | 0.00 | 0.00 | 100 | |
| 20260507031101 | 61 | 163 | 1.7 | 3.5 | 0.00 | 0.00 | 0.00 | 100 | |
| 20260507030601 | 63 | 187 | 1.7 | 1.7 | 0.00 | 0.00 | 0.00 | 100 | |
| 20260507030100 | 66 | 222 | 0.9 | 1.7 | 0.00 | 0.00 | 0.00 | 100 | |
| 20260507025600 | 66 | 203 | 1.7 | 1.7 | 0.00 | 0.00 | 0.00 | 100 | |
| 20260507025100 | 65 | 123 | 0.0 | 2.6 | 0.00 | 0.00 | 0.00 | 100 | |
| 20260507024559 | 65 | 189 | 1.7 | 2.6 | 0.00 | 0.00 | 0.00 | 100 | |
| 20260507024059 | 64 | 172 | 1.7 | 2.6 | 0.00 | 0.00 | 0.00 | 100 | |
| 20260507023559 | 62 | 147 | 1.7 | 4.3 | 0.00 | 0.00 | 0.00 | 100 | |
| 20260507023058 | 62 | 144 | 1.7 | 3.5 | 0.00 | 0.00 | 0.00 | 100 | |
| 20260507022558 | 67 | 355 | 0.0 | 0.0 | 0.00 | 0.00 | 0.00 | 100 | |
| 20260507022058 | 66 | 355 | 0.0 | 2.6 | 0.00 | 0.00 | 0.00 | 100 | |
| 20260507021558 | 65 | 357 | 1.7 | 5.2 | 0.00 | 0.00 | 0.00 | 100 | |
| 20260507021057 | 67 | 270 | 0.0 | 4.3 | 0.00 | 0.00 | 0.00 | 100 | |
| 20260507020557 | 67 | 26 | 1.7 | 3.5 | 0.00 | 0.00 | 0.00 | 100 | |
| 20260507020057 | 67 | 16 | 2.6 | 7.0 | 0.00 | 0.00 | 0.00 | 100 | |
| 20260507015556 | 67 | 348 | 2.6 | 7.8 | 0.00 | 0.00 | 0.00 | 100 | |
| 20260507015056 | 65 | 330 | 2.6 | 11.3 | 0.00 | 0.00 | 0.00 | 100 | |
| 20260507014556 | 65 | 358 | 2.6 | 7.0 | 0.00 | 0.00 | 0.00 | 100 | |
| 20260507014056 | 63 | 333 | 1.7 | 7.0 | 0.00 | 0.00 | 0.00 | 100 | |
| 20260507013556 | 65 | 25 | 1.7 | 7.0 | 0.00 | 0.00 | 0.00 | 100 | |
| 20260507013055 | 64 | 39 | 1.7 | 7.8 | 0.00 | 0.00 | 0.00 | 100 | |
| 20260507012555 | 64 | 358 | 3.5 | 8.7 | 0.00 | 0.00 | 0.00 | 100 | |
| 20260507012054 | 65 | 1 | 6.1 | 12.2 | 0.00 | 0.00 | 0.00 | 100 | |
| 20260507011554 | 64 | 327 | 2.6 | 12.2 | 0.00 | 0.00 | 0.00 | 100 | |
| 20260507011054 | 64 | 9 | 5.2 | 10.4 | 0.00 | 0.00 | 0.00 | 100 | |
| 20260507010554 | 65 | 1 | 7.0 | 12.2 | 0.00 | 0.00 | 0.00 | 100 | |
| 20260507010053 | 65 | 0 | 4.3 | 15.6 | 0.00 | 0.00 | 0.00 | 100 | |
| 20260507005553 | 65 | 19 | 4.3 | 13.9 | 0.00 | 0.00 | 0.00 | 100 | |
| 20260507005053 | 64 | 315 | 2.6 | 18.2 | 0.00 | 0.00 | 0.00 | 100 | |
| 20260507004552 | 64 | 11 | 10.4 | 15.6 | 0.00 | 0.00 | 0.00 | 100 | |
| 20260507004052 | 64 | 12 | 7.8 | 18.2 | 0.00 | 0.00 | 0.00 | 100 | |
| 20260507003552 | 64 | 28 | 3.5 | 14.8 | 0.00 | 0.00 | 0.00 | 100 | |
| 20260507003051 | 66 | 279 | 1.7 | 14.8 | 0.00 | 0.00 | 0.00 | 100 | |
| 20260507002551 | 66 | 2 | 11.3 | 11.3 | 0.00 | 0.00 | 0.00 | 100 | |
| 20260507002051 | 66 | 282 | 0.9 | 8.7 | 0.00 | 0.00 | 0.00 | 100 | |
| 20260507001551 | 65 | 28 | 6.1 | 9.6 | 0.00 | 0.00 | 0.00 | 100 | |
| 20260507001050 | 66 | 11 | 1.7 | 7.8 | 0.00 | 0.00 | 0.00 | 100 | |
| 20260507000550 | 65 | 33 | 2.6 | 7.8 | 0.00 | 0.00 | 0.00 | 100 | |
| 20260507000050 | 65 | 42 | 1.7 | 5.2 | 0.00 | 0.00 | 0.00 | 100 | |
| 20260506235549 | 64 | 29 | 0.9 | 7.0 | 0.00 | 0.00 | 0.00 | 100 | |
| 20260506235049 | 67 | 309 | 2.6 | 2.6 | 0.00 | 0.00 | 0.00 | 100 | |
| 20260506234549 | 65 | 25 | 0.0 | 2.6 | 0.00 | 0.00 | 0.00 | 100 | |
| 20260506234049 | 66 | 333 | 0.0 | 4.3 | 0.00 | 0.00 | 0.00 | 100 | |
| 20260506233548 | 66 | 42 | 3.5 | 3.5 | 0.00 | 0.00 | 0.00 | 100 | |
| 20260506233048 | 65 | 133 | 0.0 | 2.6 | 0.00 | 0.00 | 0.00 | 100 | |
| 20260506232548 | 67 | 39 | 0.0 | 3.5 | 0.00 | 0.00 | 0.00 | 100 | |
| 20260506232047 | 65 | 19 | 3.5 | 3.5 | 0.00 | 0.00 | 0.00 | 100 | |
| 20260506231547 | 66 | 312 | 0.0 | 0.0 | 0.00 | 0.00 | 0.00 | 100 | |
| 20260506231047 | 66 | 312 | 0.0 | 1.7 | 0.00 | 0.00 | 0.00 | 100 | |
| 20260506230547 | 68 | 16 | 0.0 | 0.0 | 0.00 | 0.00 | 0.00 | 100 | |
| 20260506230046 | 66 | 16 | 0.0 | 0.0 | 0.00 | 0.00 | 0.00 | 100 | |
| 20260506225546 | 66 | 16 | 0.0 | 0.0 | 0.00 | 0.00 | 0.00 | 100 | |
| 20260506225046 | 65 | 16 | 0.0 | 0.0 | 0.00 | 0.00 | 0.00 | 100 | |
| 20260506224545 | 66 | 16 | 0.0 | 3.5 | 0.00 | 0.00 | 0.00 | 100 | |
| 20260506224045 | 65 | 63 | 0.9 | 1.7 | 0.00 | 0.00 | 0.00 | 100 | |
| 20260506223545 | 65 | 268 | 0.0 | 2.6 | 0.00 | 0.00 | 0.00 | 100 | |
| 20260506223044 | 66 | 305 | 1.7 | 3.5 | 0.00 | 0.00 | 0.00 | 100 | |
| 20260506222544 | 66 | 213 | 0.0 | 2.6 | 0.00 | 0.00 | 0.00 | 100 | |
| 20260506222044 | 66 | 293 | 0.0 | 4.3 | 0.00 | 0.00 | 0.00 | 100 | |
| 20260506221544 | 66 | 217 | 1.7 | 5.2 | 0.00 | 0.00 | 0.00 | 100 | |
| 20260506221043 | 66 | 307 | 1.7 | 4.3 | 0.00 | 0.00 | 0.00 | 100 | |
| 20260506220543 | 67 | 278 | 1.7 | 5.2 | 0.00 | 0.00 | 0.00 | 100 | |
| 20260506220043 | 67 | 291 | 3.5 | 4.3 | 0.00 | 0.00 | 0.00 | 100 | |
| 20260506215542 | 67 | 337 | 0.9 | 6.1 | 0.00 | 0.00 | 0.00 | 100 | |
| 20260506215042 | 68 | 267 | 3.5 | 5.2 | 0.00 | 0.00 | 0.00 | 100 | |
| 20260506214542 | 67 | 289 | 3.5 | 4.3 | 0.00 | 0.00 | 0.00 | 100 | |
| 20260506214042 | 68 | 262 | 0.9 | 3.5 | 0.00 | 0.00 | 0.00 | 100 | |
| 20260506213541 | 68 | 288 | 2.6 | 4.3 | 0.00 | 0.00 | 0.00 | 100 | |
| 20260506213041 | 68 | 40 | 0.0 | 5.2 | 0.00 | 0.00 | 0.00 | 100 | |
| 20260506212541 | 68 | 261 | 1.7 | 7.0 | 0.00 | 0.00 | 0.00 | 100 | |
| 20260506212040 | 67 | 220 | 5.2 | 8.7 | 0.00 | 0.00 | 0.00 | 100 | |
| 20260506211540 | 67 | 271 | 3.5 | 8.7 | 0.00 | 0.00 | 0.00 | 100 | |
| 20260506211040 | 68 | 293 | 5.2 | 8.7 | 0.00 | 0.00 | 0.00 | 100 | |
| 20260506210540 | 68 | 261 | 3.5 | 8.7 | 0.00 | 0.00 | 0.00 | 100 | |
| 20260506210039 | 68 | 253 | 2.6 | 11.3 | 0.00 | 0.00 | 0.00 | 100 | |
| 20260506205539 | 68 | 309 | 5.2 | 11.3 | 0.00 | 0.00 | 0.00 | 100 | |
| 20260506205039 | 68 | 286 | 7.8 | 10.4 | 0.00 | 0.00 | 0.00 | 100 | |
| 20260506204538 | 68 | 260 | 8.7 | 13.0 | 0.00 | 0.00 | 0.00 | 100 | |
| 20260506204038 | 69 | 307 | 7.0 | 13.9 | 0.00 | 0.00 | 0.00 | 100 | |
| 20260506203538 | 69 | 319 | 5.2 | 15.6 | 0.00 | 0.00 | 0.00 | 100 | |
| 20260506203037 | 68 | 313 | 7.0 | 15.6 | 0.00 | 0.00 | 0.00 | 100 | |
| 20260506202537 | 69 | 289 | 12.2 | 16.5 | 0.00 | 0.00 | 0.00 | 100 | |
| 20260506202037 | 69 | 279 | 9.6 | 15.6 | 0.00 | 0.00 | 0.00 | 100 | |
| 20260506201537 | 68 | 258 | 13.0 | 13.0 | 0.00 | 0.00 | 0.00 | 100 | |
| 20260506201036 | 69 | 262 | 6.1 | 13.0 | 0.00 | 0.00 | 0.00 | 100 | |
| 20260506200536 | 68 | 303 | 4.3 | 11.3 | 0.00 | 0.00 | 0.00 | 100 | |
| 20260506200036 | 68 | 271 | 6.1 | 13.0 | 0.00 | 0.00 | 0.00 | 100 | |
| 20260506195535 | 68 | 284 | 6.1 | 10.4 | 0.00 | 0.00 | 0.00 | 100 | |
| 20260506195035 | 69 | 295 | 7.0 | 11.3 | 0.00 | 0.00 | 0.00 | 100 | |
| 20260506194535 | 68 | 285 | 5.2 | 8.7 | 0.00 | 0.00 | 0.00 | 100 | |
| 20260506194035 | 68 | 296 | 6.1 | 8.7 | 0.00 | 0.00 | 0.00 | 100 | |
| 20260506193534 | 68 | 250 | 4.3 | 10.4 | 0.00 | 0.00 | 0.00 | 100 | |
| 20260506193034 | 70 | 261 | 4.3 | 11.3 | 0.00 | 0.00 | 0.00 | 100 | |
| 20260506192534 | 69 | 244 | 3.5 | 9.6 | 0.00 | 0.00 | 0.00 | 100 | |
| 20260506192033 | 68 | 326 | 3.5 | 13.9 | 0.00 | 0.00 | 0.00 | 100 | |
| 20260506191533 | 69 | 258 | 7.8 | 13.9 | 0.00 | 0.00 | 0.00 | 100 | |
| 20260506191033 | 69 | 237 | 6.1 | 13.0 | 0.00 | 0.00 | 0.00 | 100 | |
| 20260506190533 | 69 | 248 | 7.0 | 13.0 | 0.00 | 0.00 | 0.00 | 100 | |
| 20260506190032 | 70 | 260 | 3.5 | 13.0 | 0.00 | 0.00 | 0.00 | 100 |